Regional Weather Roundup
Issued by NWS

Home | Current Version | Previous Version | Text Only | Print | Product List | Glossary Off
Versions: 1 2 3 4 5 6 7 8 9 10 11 12 13 14 15 16 17 18 19 20 21 22 23 24 25 26 27 28 29 30 31 32 33 34 35 36 37 38 39 40 41 42 43 44 45 46 47 48 49 50

000
ASUS43 KFSD 281610
RWRSD

WEATHER ROUNDUP FOR SOUTH DAKOTA
NATIONAL WEATHER SERVICE SIOUX FALLS SD
1100 AM CDT THU MAY 28 2015

NOTE: "FAIR" INDICATES FEW OR NO CLOUDS BELOW 12,000 FEET WITH NO
SIGNIFICANT WEATHER AND/OR OBSTRUCTIONS TO VISIBILITY.


SDZ001>005-009-010-012>017-281700-
NORTHWEST AND NORTH CENTRAL SOUTH DAKOTA

CITY           SKY/WX    TMP DP  RH WIND       PRES   REMARKS
BUFFALO          N/A     68  55  63 NW16      29.87S
MOBRIDGE       MOSUNNY   68  60  75 SW6       29.85S
$$

SDZ012>016-024>037-041>051-057-063-072>074-281700-
SOUTHWEST AND SOUTH CENTRAL SOUTH DAKOTA

CITY           SKY/WX    TMP DP  RH WIND       PRES   REMARKS
RAPID CTY ARPT PTSUNNY   68  53  58 N12       29.94F
PIERRE         MOSUNNY   73  58  59 S14       29.87R
CUSTER         PTSUNNY   61  48  62 W10       30.01F
ELLSWORTH AFB  PTSUNNY   67  52  60 N10       29.94S
PHILIP         MOSUNNY   69  59  70 CALM      29.90S
PINE RIDGE     MOSUNNY   69  51  52 W10       29.95S
SPEARFISH      FAIR      63  50  63 NW8       30.00R
WINNER         FAIR      76  56  49 SW15      29.91F
$$

SDZ004>011-016>023-039-040-281700-
NORTHEAST SOUTH DAKOTA

CITY           SKY/WX    TMP DP  RH WIND       PRES   REMARKS
ABERDEEN       SUNNY     75  61  61 S20G29    29.89F
WATERTOWN      MOSUNNY   67  61  81 S23G31    29.97F
BROOKINGS      CLOUDY    63  57  82 SW7       30.04F
SISSETON         N/A     73  58  59 SW21G30   29.92F
$$

SDZ017-020-022-023-036>040-048>070-281700-
SOUTHEAST SOUTH DAKOTA

CITY           SKY/WX    TMP DP  RH WIND       PRES   REMARKS
SIOUX FALLS    PTSUNNY   74  56  53 S22G31    30.01F
HURON            N/A    N/A N/A N/A MISG      29.92F
CHAMBERLAIN    MOSUNNY   74  60  62 S13       29.91S
MITCHELL       SUNNY     75  61  61 SE16G24   29.94F
YANKTON        MOSUNNY   75  59  57 S15G23    29.96F
$$

ABBREVIATIONS USED IN REMARKS
   TC - TEMPERATURE IN CELSIUS
  WCI - WIND CHILL INDEX
   HX - HEAT INDEX
  VSB - VISIBILITY



USA.gov is the U.S. government's official web portal to all federal, state and local government web resources and services.